Location: Radford
(37.1320°N, 80.5770°W)
Time: 15:04:47
(UTC-05:00)

Daily predictions for brighter satellites

Satellite Brightness Start Highest point End
(mag) Time Altitude Azimuth Time Altitude Azimuth Time Altitude Azimuth
BREEZE-M DEB (TANK) 3.1 17:51:03 10° NW 17:53:51 81° SW 18:01:33 10° SE
Cosmos 2278 Rocket 3.1 17:58:24 10° N 18:03:08 26° ENE 18:07:50 10° ESE
Cosmos 1328 Rocket 3.6 18:00:09 10° N 18:04:34 61° E 18:08:57 10° SSE
Cosmos 540 Rocket 4.1 18:01:25 10° SSE 18:06:04 35° E 18:10:44 10° NE
Cosmos 1340 Rocket 4.4 18:04:06 10° SE 18:06:29 16° E 18:08:51 10° NE
USA 215 3.8 18:01:53 10° E 18:07:52 39° NNE 18:13:51 10° NNW
Cosmos 2151 3.7 18:04:53 10° SSE 18:08:37 32° E 18:12:21 10° NNE
Cosmos 332 Rocket 3.8 18:04:40 10° SSW 18:09:28 83° ESE 18:14:20 10° NNE
MONITOR-E 4.3 18:07:42 10° SSE 18:10:47 54° ENE 18:13:54 10° N
Cosmos 1908 3.5 18:07:02 10° N 18:10:54 74° W 18:14:47 10° S
Cosmos 1515 Rocket 3.7 18:07:05 10° N 18:11:28 53° E 18:15:48 10° SSE
Abrixas 3.9 18:11:19 10° SSW 18:13:46 24° SE 18:15:49 12° E
Cosmos 1844 3.8 18:08:44 10° NNW 18:14:25 56° ENE 18:20:05 10° SE
SKYMED 2 3.7 18:10:36 10° NNE 18:14:53 56° E 18:19:08 10° S
SL-14 R/B 3.8 18:11:41 10° SSE 18:15:16 36° E 18:18:54 10° NNE
Cosmos 1674 3.7 18:13:23 10° SSW 18:17:04 50° W 18:20:49 10° N
SPOT 3 Rocket 4.0 18:12:11 10° S 18:17:17 68° WSW 18:22:26 10° NNW
MSX 4.0 18:11:50 10° SSE 18:17:34 83° WSW 18:23:19 10° NNW
Cosmos 1626 4.2 18:17:11 10° ESE 18:17:51 11° E 18:17:51 11° E
Elektron 3 4.1 18:13:32 10° NW 18:18:24 80° NE 18:21:23 10° SE
Thor Agena Rocket 4.1 18:14:41 10° N 18:19:52 62° WNW 18:24:57 10° SSW
Cosmos 1484 Rocket 2.7 18:16:54 10° SSE 18:20:45 72° ENE 18:24:42 10° N
Cosmos 1151 Rocket 3.3 18:17:01 10° N 18:21:07 44° E 18:25:12 10° SSE
Cosmos 1634 Rocket 4.0 18:15:19 10° N 18:21:29 66° E 18:27:35 10° SSE
COSMOS 2428 3.7 18:17:23 10° SW 18:22:53 48° WNW 18:28:25 10° N
Cosmos 1500 Rocket 3.5 18:19:31 10° S 18:23:49 84° E 18:28:11 10° N
Cosmos 1125 Rocket 3.7 18:20:12 10° N 18:25:12 45° ENE 18:30:09 10° SE
Cosmos 2237 Rocket 2.3 18:20:53 10° S 18:26:21 58° ESE 18:31:53 10° NNE
ALOS 3.6 18:27:33 10° ESE 18:30:35 17° ENE 18:33:38 10° NNE
BREEZE-M DEB (TANK) 2.8 18:23:50 10° NW 18:30:53 77° SW 18:33:49 10° SE
SL-16 R/B 3.2 18:26:38 10° SSE 18:31:09 25° ESE 18:34:21 16° ENE
Cosmos 44 3.5 18:26:33 10° SSW 18:31:48 67° ESE 18:36:41 11° NE
IDEFIX/ARIANE 42P 4.3 18:28:44 10° SSW 18:33:29 36° W 18:38:18 10° NNW
Cosmos 1300 2.7 18:31:48 10° N 18:35:36 60° E 18:39:22 10° SSE
Cosmos 1726 2.0 18:33:57 10° N 18:37:42 67° E 18:41:27 10° SSE
Hubble Space Telescope 3.3 18:36:18 10° SW 18:38:57 17° SSW 18:41:37 10° SSE
Cosmos 371 Rocket 3.6 18:35:08 10° SSW 18:39:54 66° WNW 18:44:42 10° NNE
Sich 1 4.3 18:37:09 10° SE 18:40:30 21° E 18:40:52 21° E
NOSS 0 Rocket 4.0 18:34:57 10° SSW 18:41:11 88° WNW 18:47:27 10° NNE
CZ-4 R/B 4.3 18:39:14 10° SW 18:42:03 19° W 18:44:52 10° NW
BREEZE-M DEB (TANK) 1.8 18:39:29 10° WSW 18:42:03 78° NW 18:43:04 30° NE
Lacrosse 5 rocket 2.6 18:40:30 10° NNW 18:43:26 20° NE 18:43:38 20° NE
Cosmos 1633 Rocket 4.4 18:40:20 10° SE 18:42:54 19° E 18:42:54 19° E
OTV 4 0.3 18:45:28 10° W 18:48:26 84° S 18:49:25 38° ESE
FREGAT/IRIS 3.8 18:45:51 10° SE 18:52:42 - N 18:47:34 26° ESE
CENTAUR R/B 4.0 18:45:13 10° WSW 18:50:39 32° NW 18:56:42 10° NNE
Meteor 1-11 4.2 18:47:11 10° S 18:52:49 81° E 18:58:34 10° N
Resurs 01 Rocket 2.9 18:54:22 22° NE 18:54:22 22° NE 18:56:40 10° NNE
Cosmos 2084 4.4 18:51:29 10° WSW 18:55:10 39° NW 18:58:07 14° NNE
Cosmos 44 Rocket 4.5 18:54:45 10° SW 18:59:38 43° NW 19:04:26 10° NNE
Meteor 1-28 Rocket 3.8 18:56:40 10° N 19:00:18 54° WNW 19:03:56 10° SSW
Cosmos 1844 Rocket 4.0 18:55:29 10° NW 19:00:49 43° WSW 19:06:05 10° S
Aureole 2 Rocket 2.4 18:59:04 10° SSW 19:02:36 86° ESE 19:04:38 26° NNE
COSMO-SKYMED 1 4.0 18:58:47 10° N 19:02:49 39° WNW 19:06:51 10° SW
CZ-3A R/B 3.3 18:58:45 10° NNW 19:03:11 38° NE 19:04:51 30° ENE
Cosmos 1707 Rocket 3.8 19:02:36 10° N 19:06:45 43° E 19:10:52 10° SSE
FengYun 1-2 T 4.4 19:03:44 10° SE 19:09:02 48° ENE 19:14:20 10° N
Cosmos 1461 3.1 19:06:15 10° S 19:10:19 46° ESE 19:10:31 46° ESE
SJ-6B 2.8 19:07:56 10° SSE 19:11:57 86° ENE 19:16:05 10° N
Cosmos 1980 4.5 19:08:15 10° SW 19:13:45 51° WNW 19:19:17 10° NNE
Cosmos 2279 Rocket 4.0 19:07:34 10° N 19:13:48 82° W 19:20:02 10° S
Cosmos 1666 Rocket 3.5 19:10:39 10° S 19:14:52 56° E 19:15:24 52° ENE
Intelsat 5-1 Rocket 4.3 19:15:17 10° SSW 19:17:14 14° SSE 19:18:34 13° SSE
Milstar 3 4.0 19:12:08 10° WSW 19:18:00 33° SSW 19:23:49 13° SE
Cosmos 2058 4.0 19:15:52 10° SSW 19:19:48 44° W 19:23:45 10° N
FENGYUN 3A 3.6 19:18:26 10° SSE 19:23:41 60° ENE 19:28:58 10° N
Cosmos 304 Rocket 3.8 19:21:03 10° SSW 19:25:52 80° WNW 19:28:08 32° N
Cosmos 2333 Rocket 3.7 19:21:20 10° SW 19:26:23 33° WNW 19:31:29 10° N
Cosmos 1703 3.6 19:23:53 10° SSW 19:27:44 63° W 19:29:16 34° NNW
Atlas Centaur 2 4.3 19:29:31 10° SW 19:30:41 11° SSW 19:31:48 10° SSW
Nadezhda 4 Rocket 3.9 19:25:38 10° S 19:31:51 82° E 19:38:10 10° N
Cosmos 2219 Rocket 4.4 19:35:52 10° WSW 19:40:02 21° NW 19:44:12 10° N
Cosmos 1356 Rocket 3.9 19:40:01 10° SSW 19:43:34 56° WSW 19:43:34 56° WSW
Cosmos 2278 Rocket 3.4 19:42:01 10° NW 19:47:19 41° WSW 19:52:34 10° S
Cosmos 1092 Rocket 3.9 19:42:49 10° S 19:49:08 81° E 19:51:46 38° NNE
USA 215 3.6 19:45:33 17° SSE 19:50:37 62° SW 19:57:07 10° NW
Cosmos 1626 3.7 19:49:42 10° SSW 19:52:36 34° WSW 19:52:36 34° WSW
Aureole 1 Rocket 4.2 19:56:07 10° SSW 19:59:14 45° SSW 19:59:14 45° SSW
ALOS 3.3 20:03:13 10° S 20:07:39 43° W 20:12:06 10° NNW
BREEZE-M DEB (TANK) 4.3 20:06:14 10° SSW 20:35:25 - NE 20:08:58 42° S
Cosmos 2237 Rocket 4.5 20:06:50 10° W 20:10:48 19° NW 20:14:47 10° N
Spot 2 Rocket 4.4 20:08:14 10° S 20:13:04 45° W 20:17:55 10° NNW
SL-16 R/B 3.3 20:09:43 10° SW 20:14:59 40° WNW 20:16:18 35° NNW
Lacrosse 5 rocket 4.2 20:19:02 10° NW 20:19:24 12° NW 20:19:24 12° NW
Resurs 01 Rocket 4.2 20:31:56 15° NW 20:31:56 15° NW 20:33:02 10° NW
USA 229 DEB 4.1 20:26:16 10° SW 20:31:47 59° WSW 20:31:47 59° WSW
USA 229 4.1 20:26:22 10° SW 20:31:49 58° WSW 20:31:49 58° WSW
H-2A ROCKET BODY 4.3 20:55:50 10° W 21:02:29 26° SW 21:02:29 26° SW
